Time,TemperatureF,DewpointF,PressureIn,WindDirection,WindDirectionDegrees,WindSpeedMPH,WindSpeedGustMPH,Humidity,HourlyPrecipIn,Conditions,Clouds,dailyrainin,SoftwareType,DateUTC
2013-05-27 00:00:00,57.1,56.5,30.11,SSW,208,1.0,1.0,98,0.19,,,0.00,Wunderground v.1.15,2013-05-27 04:00:00,
2013-05-27 00:05:00,57.1,56.5,30.10,SSE,150,1.0,1.0,98,0.50,,,0.05,Wunderground v.1.15,2013-05-27 04:05:00,
2013-05-27 00:10:00,57.1,56.5,30.10,ESE,109,1.0,1.0,98,0.17,,,0.07,Wunderground v.1.15,2013-05-27 04:10:00,
2013-05-27 00:15:00,57.1,56.5,30.10,South,190,1.0,1.0,98,0.10,,,0.07,Wunderground v.1.15,2013-05-27 04:15:00,
2013-05-27 00:20:00,57.2,56.6,30.10,SSE,151,1.0,1.0,98,0.05,,,0.07,Wunderground v.1.15,2013-05-27 04:20:00,
2013-05-27 00:30:00,57.2,56.6,30.10,ESE,107,1.0,1.0,98,0.05,,,0.08,Wunderground v.1.15,2013-05-27 04:30:00,
2013-05-27 00:35:00,57.2,56.6,30.09,East,84,1.0,1.0,98,0.04,,,0.08,Wunderground v.1.15,2013-05-27 04:35:00,
2013-05-27 00:40:00,57.2,56.6,30.09,East,93,1.0,1.0,98,0.00,,,0.08,Wunderground v.1.15,2013-05-27 04:40:00,
2013-05-27 00:45:00,57.2,56.6,30.09,SE,138,1.0,2.0,98,0.00,,,0.08,Wunderground v.1.15,2013-05-27 04:45:00,
2013-05-27 00:50:00,57.2,56.6,30.08,ENE,68,1.0,1.0,98,0.00,,,0.08,Wunderground v.1.15,2013-05-27 04:50:00,
2013-05-27 00:55:00,57.2,56.6,30.08,East,86,1.0,1.0,98,0.00,,,0.08,Wunderground v.1.15,2013-05-27 04:55:00,
2013-05-27 01:00:00,57.2,56.6,30.08,ESE,109,1.0,1.0,98,0.00,,,0.08,Wunderground v.1.15,2013-05-27 05:00:00,
2013-05-27 01:10:00,57.2,56.6,30.08,ESE,117,1.0,1.0,98,0.00,,,0.08,Wunderground v.1.15,2013-05-27 05:10:00,
2013-05-27 01:15:00,57.2,56.6,30.08,East,86,1.0,1.0,98,0.00,,,0.08,Wunderground v.1.15,2013-05-27 05:15:00,
2013-05-27 01:20:00,57.2,56.6,30.07,ESE,112,0.0,4.0,98,0.00,,,0.08,Wunderground v.1.15,2013-05-27 05:20:00,
2013-05-27 01:25:00,57.2,56.6,30.07,East,85,1.0,4.0,98,0.00,,,0.08,Wunderground v.1.15,2013-05-27 05:25:00,
2013-05-27 01:30:00,57.2,56.6,30.07,SE,132,1.0,1.0,98,0.00,,,0.08,Wunderground v.1.15,2013-05-27 05:30:00,
2013-05-27 01:35:00,57.2,56.6,30.07,SE,128,1.0,2.0,98,0.00,,,0.08,Wunderground v.1.15,2013-05-27 05:35:00,
2013-05-27 01:40:00,57.2,56.6,30.07,ESE,113,1.0,1.0,98,0.00,,,0.08,Wunderground v.1.15,2013-05-27 05:40:00,
2013-05-27 01:50:00,57.2,56.6,30.07,ENE,69,1.0,1.0,98,0.00,,,0.08,Wunderground v.1.15,2013-05-27 05:50:00,
2013-05-27 01:55:00,57.2,56.6,30.07,NE,53,1.0,2.0,98,1.75,,,0.11,Wunderground v.1.15,2013-05-27 05:55:00,
2013-05-27 02:00:00,57.2,56.6,30.07,East,101,1.0,1.0,98,0.51,,,0.17,Wunderground v.1.15,2013-05-27 06:00:00,
2013-05-27 02:10:00,57.2,56.6,30.07,ESE,115,1.0,3.0,98,0.07,,,0.18,Wunderground v.1.15,2013-05-27 06:10:00,
2013-05-27 02:20:00,57.3,57.0,30.08,East,90,0.0,1.0,99,0.06,,,0.19,Wunderground v.1.15,2013-05-27 06:20:00,
2013-05-27 02:25:00,57.3,57.0,30.08,ESE,122,1.0,1.0,99,0.04,,,0.19,Wunderground v.1.15,2013-05-27 06:25:00,
2013-05-27 02:30:00,57.3,57.0,30.08,NW,316,1.0,1.0,99,0.00,,,0.19,Wunderground v.1.15,2013-05-27 06:30:00,
2013-05-27 02:35:00,57.2,56.9,30.09,NNW,336,1.0,1.0,99,0.00,,,0.19,Wunderground v.1.15,2013-05-27 06:35:00,
2013-05-27 02:40:00,57.2,56.6,30.09,WNW,302,1.0,1.0,98,0.00,,,0.19,Wunderground v.1.15,2013-05-27 06:40:00,
2013-05-27 02:45:00,57.2,56.6,30.10,WNW,298,2.0,2.0,98,0.00,,,0.19,Wunderground v.1.15,2013-05-27 06:45:00,
2013-05-27 02:50:00,57.2,56.6,30.09,ENE,60,2.0,3.0,98,0.00,,,0.19,Wunderground v.1.15,2013-05-27 06:50:00,
2013-05-27 02:55:00,57.1,56.5,30.09,ENE,76,2.0,3.0,98,0.00,,,0.19,Wunderground v.1.15,2013-05-27 06:55:00,
2013-05-27 03:00:00,57.1,56.5,30.08,East,96,2.0,2.0,98,0.00,,,0.19,Wunderground v.1.15,2013-05-27 07:00:00,
2013-05-27 03:05:00,57.1,56.5,30.08,ESE,103,1.0,2.0,98,0.00,,,0.19,Wunderground v.1.15,2013-05-27 07:05:00,
2013-05-27 03:10:00,57.1,56.5,30.09,ENE,69,1.0,1.0,98,0.00,,,0.19,Wunderground v.1.15,2013-05-27 07:10:00,
2013-05-27 03:15:00,57.1,56.5,30.09,ESE,115,1.0,1.0,98,0.00,,,0.19,Wunderground v.1.15,2013-05-27 07:15:00,
2013-05-27 03:20:00,57.1,56.5,30.09,ESE,115,0.0,1.0,98,0.00,,,0.19,Wunderground v.1.15,2013-05-27 07:20:00,
2013-05-27 03:25:00,57.1,56.5,30.08,North,5,1.0,1.0,98,0.00,,,0.20,Wunderground v.1.15,2013-05-27 07:25:00,
2013-05-27 03:35:00,57.1,56.5,30.07,East,94,1.0,2.0,98,0.00,,,0.20,Wunderground v.1.15,2013-05-27 07:35:00,
2013-05-27 03:40:00,57.0,56.4,30.08,North,355,1.0,1.0,98,0.00,,,0.20,Wunderground v.1.15,2013-05-27 07:40:00,
2013-05-27 03:45:00,57.0,56.7,30.08,East,93,1.0,1.0,99,0.00,,,0.20,Wunderground v.1.15,2013-05-27 07:45:00,
2013-05-27 03:50:00,57.0,56.7,30.07,ESE,103,1.0,1.0,99,0.25,,,0.22,Wunderground v.1.15,2013-05-27 07:50:00,
2013-05-27 04:00:00,56.9,56.6,30.06,NE,51,1.0,1.0,99,0.32,,,0.28,Wunderground v.1.15,2013-05-27 08:00:00,
2013-05-27 04:05:00,56.9,56.6,30.07,SE,130,1.0,1.0,99,0.18,,,0.29,Wunderground v.1.15,2013-05-27 08:05:00,
2013-05-27 04:10:00,56.9,56.6,30.07,East,95,1.0,1.0,99,0.22,,,0.31,Wunderground v.1.15,2013-05-27 08:10:00,
2013-05-27 04:15:00,56.9,56.6,30.07,NE,45,1.0,1.0,99,0.08,,,0.31,Wunderground v.1.15,2013-05-27 08:15:00,
2013-05-27 04:25:00,56.9,56.6,30.08,NNE,30,0.0,2.0,99,0.00,,,0.31,Wunderground v.1.15,2013-05-27 08:25:00,
2013-05-27 04:35:00,56.9,56.6,30.09,NNW,341,0.0,1.0,99,0.00,,,0.32,Wunderground v.1.15,2013-05-27 08:35:00,
2013-05-27 04:40:00,56.9,56.6,30.08,NNW,341,0.0,1.0,99,0.00,,,0.32,Wunderground v.1.15,2013-05-27 08:40:00,
2013-05-27 04:45:00,56.9,56.6,30.08,ENE,63,0.0,1.0,99,0.00,,,0.32,Wunderground v.1.15,2013-05-27 08:45:00,
2013-05-27 04:50:00,56.9,56.6,30.08,ENE,63,0.0,1.0,99,0.00,,,0.32,Wunderground v.1.15,2013-05-27 08:50:00,
2013-05-27 04:55:00,56.9,56.6,30.08,ENE,63,0.0,1.0,99,0.00,,,0.32,Wunderground v.1.15,2013-05-27 08:55:00,
2013-05-27 05:00:00,56.9,56.6,30.07,ENE,63,0.0,1.0,99,0.00,,,0.32,Wunderground v.1.15,2013-05-27 09:00:00,
2013-05-27 05:05:00,56.9,56.6,30.07,ENE,63,0.0,1.0,99,0.00,,,0.32,Wunderground v.1.15,2013-05-27 09:05:00,
2013-05-27 05:10:00,56.9,56.6,30.07,SE,130,0.0,1.0,99,0.00,,,0.32,Wunderground v.1.15,2013-05-27 09:10:00,
2013-05-27 05:15:00,56.9,56.6,30.06,East,100,0.0,1.0,99,0.00,,,0.32,Wunderground v.1.15,2013-05-27 09:15:00,
2013-05-27 05:20:00,56.8,56.5,30.06,ESE,120,1.0,1.0,99,0.00,,,0.32,Wunderground v.1.15,2013-05-27 09:20:00,
2013-05-27 05:25:00,56.8,56.5,30.05,ESE,109,1.0,1.0,99,0.00,,,0.32,Wunderground v.1.15,2013-05-27 09:25:00,
2013-05-27 05:30:00,56.8,56.5,30.05,East,90,0.0,1.0,99,0.00,,,0.32,Wunderground v.1.15,2013-05-27 09:30:00,
2013-05-27 05:35:00,56.8,56.5,30.05,ESE,115,1.0,3.0,99,0.00,,,0.32,Wunderground v.1.15,2013-05-27 09:35:00,
2013-05-27 05:40:00,56.7,56.4,30.05,SE,128,1.0,1.0,99,0.00,,,0.32,Wunderground v.1.15,2013-05-27 09:40:00,
2013-05-27 06:00:00,56.7,56.4,30.04,ESE,121,1.0,1.0,99,0.00,,,0.32,Wunderground v.1.15,2013-05-27 10:00:00,
2013-05-27 06:10:00,56.7,56.4,30.04,SE,127,0.0,0.0,99,0.00,,,0.32,Wunderground v.1.15,2013-05-27 10:10:00,
2013-05-27 06:20:00,56.7,56.4,30.04,ESE,110,1.0,2.0,99,0.00,,,0.32,Wunderground v.1.15,2013-05-27 10:20:00,
2013-05-27 06:25:00,56.6,56.3,30.04,ESE,102,1.0,2.0,99,0.00,,,0.32,Wunderground v.1.15,2013-05-27 10:25:00,
2013-05-27 06:30:00,56.7,56.4,30.04,SE,125,0.0,1.0,99,0.00,,,0.32,Wunderground v.1.15,2013-05-27 10:30:00,
2013-05-27 06:35:00,56.7,56.4,30.04,ESE,119,1.0,1.0,99,0.00,,,0.32,Wunderground v.1.15,2013-05-27 10:35:00,
2013-05-27 06:40:00,56.7,56.4,30.04,ESE,113,1.0,1.0,99,0.00,,,0.32,Wunderground v.1.15,2013-05-27 10:40:00,
2013-05-27 06:45:00,56.7,56.4,30.04,ESE,113,0.0,1.0,99,0.00,,,0.33,Wunderground v.1.15,2013-05-27 10:45:00,
2013-05-27 07:00:00,56.8,56.5,30.03,SSE,160,0.0,0.0,99,0.00,,,0.33,Wunderground v.1.15,2013-05-27 11:00:00,
2013-05-27 07:05:00,56.8,56.5,30.03,SE,135,0.0,2.0,99,0.00,,,0.33,Wunderground v.1.15,2013-05-27 11:05:00,
2013-05-27 07:20:00,57.0,56.7,30.04,ESE,105,0.0,7.0,99,0.00,,,0.33,Wunderground v.1.15,2013-05-27 11:20:00,
2013-05-27 07:30:00,57.1,56.8,30.04,East,81,0.0,7.0,99,0.00,,,0.33,Wunderground v.1.15,2013-05-27 11:30:00,
2013-05-27 07:35:00,57.1,56.8,30.03,ESE,108,1.0,7.0,99,0.00,,,0.33,Wunderground v.1.15,2013-05-27 11:35:00,
2013-05-27 07:40:00,57.2,56.9,30.03,East,98,2.0,7.0,99,0.00,,,0.33,Wunderground v.1.15,2013-05-27 11:40:00,
2013-05-27 07:45:00,57.2,56.9,30.03,South,173,2.0,7.0,99,0.00,,,0.33,Wunderground v.1.15,2013-05-27 11:45:00,
2013-05-27 07:50:00,57.3,57.0,30.02,SW,217,2.0,2.0,99,0.00,,,0.33,Wunderground v.1.15,2013-05-27 11:50:00,
2013-05-27 07:55:00,57.3,57.0,30.02,ESE,119,1.0,7.0,99,0.00,,,0.33,Wunderground v.1.15,2013-05-27 11:55:00,
2013-05-27 08:00:00,57.4,57.1,30.02,SE,142,1.0,7.0,99,0.00,,,0.33,Wunderground v.1.15,2013-05-27 12:00:00,
2013-05-27 08:05:00,57.4,57.1,30.02,ESE,106,1.0,7.0,99,0.00,,,0.33,Wunderground v.1.15,2013-05-27 12:05:00,
2013-05-27 08:10:00,57.5,57.2,30.02,SE,130,0.0,7.0,99,0.00,,,0.33,Wunderground v.1.15,2013-05-27 12:10:00,
2013-05-27 08:15:00,57.5,57.2,30.01,SE,129,0.0,7.0,99,0.00,,,0.33,Wunderground v.1.15,2013-05-27 12:15:00,
2013-05-27 08:20:00,57.5,57.2,30.01,ESE,102,0.0,7.0,99,0.00,,,0.33,Wunderground v.1.15,2013-05-27 12:20:00,
2013-05-27 08:25:00,57.6,57.3,30.00,ESE,102,0.0,7.0,99,0.00,,,0.33,Wunderground v.1.15,2013-05-27 12:25:00,
2013-05-27 08:30:00,57.7,57.4,30.00,ESE,121,1.0,7.0,99,0.00,,,0.33,Wunderground v.1.15,2013-05-27 12:30:00,
2013-05-27 08:40:00,57.8,57.5,30.00,ENE,64,1.0,7.0,99,0.00,,,0.33,Wunderground v.1.15,2013-05-27 12:40:00,
2013-05-27 08:45:00,57.8,57.5,30.00,East,86,1.0,7.0,99,0.00,,,0.33,Wunderground v.1.15,2013-05-27 12:45:00,
2013-05-27 08:55:00,57.8,57.5,29.99,ESE,121,1.0,7.0,99,0.00,,,0.33,Wunderground v.1.15,2013-05-27 12:55:00,
2013-05-27 09:05:00,57.9,57.6,29.99,SE,132,1.0,7.0,99,0.00,,,0.33,Wunderground v.1.15,2013-05-27 13:05:00,
2013-05-27 09:10:00,57.9,57.6,29.99,ENE,60,1.0,7.0,99,0.00,,,0.33,Wunderground v.1.15,2013-05-27 13:10:00,
2013-05-27 09:15:00,57.9,57.6,29.99,East,101,1.0,7.0,99,0.00,,,0.33,Wunderground v.1.15,2013-05-27 13:15:00,
2013-05-27 09:20:00,57.9,57.6,29.99,ESE,113,1.0,7.0,99,0.00,,,0.33,Wunderground v.1.15,2013-05-27 13:20:00,
2013-05-27 09:25:00,58.0,57.7,29.99,ESE,103,1.0,7.0,99,0.00,,,0.33,Wunderground v.1.15,2013-05-27 13:25:00,
2013-05-27 09:30:00,58.0,57.7,29.99,SE,136,1.0,7.0,99,0.00,,,0.33,Wunderground v.1.15,2013-05-27 13:30:00,
2013-05-27 09:35:00,58.0,57.7,29.99,East,95,1.0,7.0,99,0.00,,,0.33,Wunderground v.1.15,2013-05-27 13:35:00,
2013-05-27 09:45:00,58.3,58.0,29.99,East,100,1.0,7.0,99,0.00,,,0.33,Wunderground v.1.15,2013-05-27 13:45:00,
2013-05-27 09:55:00,58.9,58.6,29.99,SE,136,1.0,7.0,99,0.00,,,0.33,Wunderground v.1.15,2013-05-27 13:55:00,
2013-05-27 10:00:00,59.1,58.8,29.99,ESE,117,1.0,1.0,99,0.00,,,0.33,Wunderground v.1.15,2013-05-27 14:00:00,
2013-05-27 10:05:00,59.5,59.2,29.99,SE,142,1.0,4.0,99,0.00,,,0.33,Wunderground v.1.15,2013-05-27 14:05:00,
2013-05-27 10:10:00,59.6,59.0,29.99,ENE,70,1.0,7.0,98,0.00,,,0.33,Wunderground v.1.15,2013-05-27 14:10:00,
2013-05-27 10:15:00,59.6,59.0,29.98,ESE,120,1.0,7.0,98,0.00,,,0.33,Wunderground v.1.15,2013-05-27 14:15:00,
2013-05-27 10:20:00,59.7,58.8,29.99,ESE,123,1.0,7.0,97,0.00,,,0.33,Wunderground v.1.15,2013-05-27 14:20:00,
2013-05-27 10:25:00,59.8,58.9,29.99,ESE,123,1.0,7.0,97,0.00,,,0.33,Wunderground v.1.15,2013-05-27 14:25:00,
2013-05-27 10:30:00,59.8,58.9,29.99,ESE,123,0.0,7.0,97,0.00,,,0.33,Wunderground v.1.15,2013-05-27 14:30:00,
2013-05-27 10:40:00,59.8,58.9,29.99,ESE,107,0.0,7.0,97,0.00,,,0.33,Wunderground v.1.15,2013-05-27 14:40:00,
2013-05-27 10:45:00,59.8,58.9,29.99,ESE,117,1.0,7.0,97,0.00,,,0.33,Wunderground v.1.15,2013-05-27 14:45:00,
2013-05-27 10:50:00,60.0,59.1,29.99,East,98,1.0,1.0,97,0.00,,,0.33,Wunderground v.1.15,2013-05-27 14:50:00,
2013-05-27 11:00:00,60.2,59.3,29.98,ESE,109,1.0,1.0,97,0.00,,,0.34,Wunderground v.1.15,2013-05-27 15:00:00,
2013-05-27 11:05:00,60.3,59.4,29.98,ESE,109,1.0,7.0,97,0.00,,,0.34,Wunderground v.1.15,2013-05-27 15:05:00,
2013-05-27 11:10:00,60.6,59.7,29.98,ESE,109,0.0,7.0,97,0.00,,,0.34,Wunderground v.1.15,2013-05-27 15:10:00,
2013-05-27 11:15:00,61.0,60.4,29.98,SSW,213,0.0,7.0,98,0.00,,,0.34,Wunderground v.1.15,2013-05-27 15:15:00,
2013-05-27 11:20:00,61.3,60.7,29.98,South,189,0.0,7.0,98,0.00,,,0.34,Wunderground v.1.15,2013-05-27 15:20:00,
2013-05-27 11:25:00,61.6,61.0,29.98,South,189,0.0,7.0,98,0.00,,,0.34,Wunderground v.1.15,2013-05-27 15:25:00,
2013-05-27 11:30:00,62.0,61.4,29.98,South,183,0.0,7.0,98,0.00,,,0.34,Wunderground v.1.15,2013-05-27 15:30:00,
2013-05-27 11:35:00,62.5,61.6,29.97,ENE,75,0.0,7.0,97,0.00,,,0.34,Wunderground v.1.15,2013-05-27 15:35:00,
2013-05-27 11:40:00,62.9,61.7,29.97,ESE,122,1.0,1.0,96,0.00,,,0.34,Wunderground v.1.15,2013-05-27 15:40:00,
2013-05-27 11:45:00,63.1,61.9,29.97,ESE,122,0.0,7.0,96,0.00,,,0.34,Wunderground v.1.15,2013-05-27 15:45:00,
2013-05-27 11:50:00,63.2,61.4,29.96,South,169,0.0,7.0,94,0.00,,,0.34,Wunderground v.1.15,2013-05-27 15:50:00,
2013-05-27 11:55:00,63.3,61.5,29.96,ESE,116,1.0,7.0,94,0.00,,,0.34,Wunderground v.1.15,2013-05-27 15:55:00,
2013-05-27 12:00:00,63.2,61.4,29.96,ESE,107,1.0,7.0,94,0.00,,,0.34,Wunderground v.1.15,2013-05-27 16:00:00,
2013-05-27 12:05:00,63.2,61.4,29.96,ESE,120,1.0,7.0,94,0.00,,,0.34,Wunderground v.1.15,2013-05-27 16:05:00,
2013-05-27 12:10:00,63.2,61.4,29.95,ESE,117,1.0,7.0,94,0.00,,,0.34,Wunderground v.1.15,2013-05-27 16:10:00,
2013-05-27 12:15:00,63.3,61.5,29.95,SW,224,1.0,7.0,94,0.00,,,0.34,Wunderground v.1.15,2013-05-27 16:15:00,
2013-05-27 12:20:00,63.4,61.9,29.95,SW,224,1.0,1.0,95,0.00,,,0.34,Wunderground v.1.15,2013-05-27 16:20:00,
2013-05-27 12:25:00,63.4,61.6,29.95,East,86,0.0,7.0,94,0.00,,,0.34,Wunderground v.1.15,2013-05-27 16:25:00,
2013-05-27 12:30:00,63.5,61.7,29.95,East,93,0.0,7.0,94,0.00,,,0.34,Wunderground v.1.15,2013-05-27 16:30:00,
2013-05-27 12:40:00,63.5,61.7,29.94,NE,48,1.0,7.0,94,0.00,,,0.34,Wunderground v.1.15,2013-05-27 16:40:00,
2013-05-27 12:45:00,63.7,61.9,29.94,ESE,117,0.0,7.0,94,0.00,,,0.34,Wunderground v.1.15,2013-05-27 16:45:00,
2013-05-27 12:50:00,63.9,62.1,29.94,East,89,0.0,7.0,94,0.00,,,0.34,Wunderground v.1.15,2013-05-27 16:50:00,
2013-05-27 12:55:00,64.0,62.2,29.94,SSW,193,0.0,7.0,94,0.00,,,0.34,Wunderground v.1.15,2013-05-27 16:55:00,
2013-05-27 13:00:00,64.1,62.3,29.94,SSW,193,0.0,7.0,94,0.00,,,0.34,Wunderground v.1.15,2013-05-27 17:00:00,
2013-05-27 13:05:00,64.1,62.3,29.93,SSW,193,0.0,7.0,94,0.00,,,0.34,Wunderground v.1.15,2013-05-27 17:05:00,
2013-05-27 13:10:00,64.0,62.5,29.93,SSW,193,0.0,7.0,95,0.00,,,0.34,Wunderground v.1.15,2013-05-27 17:10:00,
2013-05-27 13:15:00,64.1,62.6,29.93,South,190,0.0,7.0,95,0.00,,,0.34,Wunderground v.1.15,2013-05-27 17:15:00,
2013-05-27 13:25:00,64.1,62.6,29.93,South,191,0.0,7.0,95,0.00,,,0.34,Wunderground v.1.15,2013-05-27 17:25:00,
2013-05-27 13:30:00,64.2,62.7,29.93,South,191,0.0,7.0,95,0.00,,,0.34,Wunderground v.1.15,2013-05-27 17:30:00,
2013-05-27 13:35:00,64.3,63.1,29.93,South,191,0.0,7.0,96,0.00,,,0.34,Wunderground v.1.15,2013-05-27 17:35:00,
2013-05-27 13:40:00,64.4,63.2,29.93,South,191,0.0,7.0,96,0.00,,,0.34,Wunderground v.1.15,2013-05-27 17:40:00,
2013-05-27 13:50:00,64.5,63.3,29.92,South,191,0.0,7.0,96,0.00,,,0.34,Wunderground v.1.15,2013-05-27 17:50:00,
2013-05-27 13:55:00,64.6,63.4,29.92,South,173,0.0,7.0,96,0.00,,,0.34,Wunderground v.1.15,2013-05-27 17:55:00,
2013-05-27 14:00:00,64.8,63.6,29.92,SSE,157,0.0,7.0,96,0.00,,,0.34,Wunderground v.1.15,2013-05-27 18:00:00,
2013-05-27 14:05:00,65.0,63.8,29.92,SE,130,0.0,7.0,96,0.00,,,0.34,Wunderground v.1.15,2013-05-27 18:05:00,
2013-05-27 14:10:00,65.2,63.7,29.92,South,170,0.0,7.0,95,0.00,,,0.34,Wunderground v.1.15,2013-05-27 18:10:00,
2013-05-27 14:15:00,65.5,63.7,29.92,South,170,0.0,7.0,94,0.00,,,0.34,Wunderground v.1.15,2013-05-27 18:15:00,
2013-05-27 14:20:00,66.0,64.2,29.92,South,170,0.0,7.0,94,0.00,,,0.34,Wunderground v.1.15,2013-05-27 18:20:00,
2013-05-27 14:25:00,66.4,64.6,29.92,South,170,0.0,7.0,94,0.00,,,0.34,Wunderground v.1.15,2013-05-27 18:25:00,
2013-05-27 14:30:00,66.7,64.6,29.92,South,170,0.0,7.0,93,0.00,,,0.34,Wunderground v.1.15,2013-05-27 18:30:00,
2013-05-27 14:35:00,67.1,64.7,29.92,SSW,207,0.0,7.0,92,0.00,,,0.34,Wunderground v.1.15,2013-05-27 18:35:00,
2013-05-27 14:40:00,67.8,65.1,29.92,SW,218,1.0,1.0,91,0.00,,,0.34,Wunderground v.1.15,2013-05-27 18:40:00,
2013-05-27 14:45:00,68.6,65.5,29.92,South,177,1.0,3.0,90,0.00,,,0.34,Wunderground v.1.15,2013-05-27 18:45:00,
2013-05-27 14:55:00,70.1,66.0,29.92,South,186,2.0,7.0,87,0.00,,,0.34,Wunderground v.1.15,2013-05-27 18:55:00,
2013-05-27 15:00:00,70.7,66.6,29.92,South,190,1.0,1.0,87,0.00,,,0.34,Wunderground v.1.15,2013-05-27 19:00:00,
2013-05-27 15:05:00,71.1,66.7,29.92,South,184,1.0,7.0,86,0.00,,,0.34,Wunderground v.1.15,2013-05-27 19:05:00,
2013-05-27 15:10:00,71.4,66.7,29.92,South,180,2.0,2.0,85,0.00,,,0.34,Wunderground v.1.15,2013-05-27 19:10:00,
2013-05-27 15:15:00,71.7,66.9,29.92,South,185,1.0,7.0,85,0.00,,,0.34,Wunderground v.1.15,2013-05-27 19:15:00,
2013-05-27 15:20:00,72.1,67.0,29.92,South,182,1.0,1.0,84,0.00,,,0.34,Wunderground v.1.15,2013-05-27 19:20:00,
2013-05-27 15:25:00,72.2,67.1,29.91,SSW,194,1.0,5.0,84,0.00,,,0.34,Wunderground v.1.15,2013-05-27 19:25:00,
2013-05-27 15:30:00,72.5,67.4,29.91,South,172,1.0,7.0,84,0.00,,,0.34,Wunderground v.1.15,2013-05-27 19:30:00,
2013-05-27 15:35:00,72.8,67.3,29.91,SSW,213,1.0,7.0,83,0.00,,,0.34,Wunderground v.1.15,2013-05-27 19:35:00,
2013-05-27 15:40:00,73.3,67.8,29.90,SSW,213,1.0,1.0,83,0.00,,,0.34,Wunderground v.1.15,2013-05-27 19:40:00,
2013-05-27 15:45:00,73.9,68.4,29.90,South,181,1.0,7.0,83,0.00,,,0.34,Wunderground v.1.15,2013-05-27 19:45:00,
2013-05-27 15:50:00,74.3,68.4,29.90,West,264,1.0,1.0,82,0.00,,,0.34,Wunderground v.1.15,2013-05-27 19:50:00,
2013-05-27 16:00:00,75.1,68.9,29.89,WSW,251,1.0,1.0,81,0.00,,,0.34,Wunderground v.1.15,2013-05-27 20:00:00,
2013-05-27 16:05:00,75.4,69.2,29.89,WSW,250,0.0,2.0,81,0.00,,,0.34,Wunderground v.1.15,2013-05-27 20:05:00,
2013-05-27 16:10:00,75.5,68.5,29.89,WSW,238,1.0,7.0,79,0.00,,,0.34,Wunderground v.1.15,2013-05-27 20:10:00,
2013-05-27 16:20:00,76.4,69.4,29.88,WSW,243,1.0,7.0,79,0.00,,,0.34,Wunderground v.1.15,2013-05-27 20:20:00,
2013-05-27 16:25:00,76.7,69.3,29.88,NW,316,1.0,7.0,78,0.00,,,0.34,Wunderground v.1.15,2013-05-27 20:25:00,
2013-05-27 16:35:00,77.0,70.0,29.87,SSW,195,2.0,4.0,79,0.00,,,0.34,Wunderground v.1.15,2013-05-27 20:35:00,
2013-05-27 16:40:00,77.0,70.0,29.86,WNW,290,2.0,7.0,79,0.00,,,0.34,Wunderground v.1.15,2013-05-27 20:40:00,
2013-05-27 16:50:00,77.4,69.6,29.86,SW,228,1.0,7.0,77,0.00,,,0.34,Wunderground v.1.15,2013-05-27 20:50:00,
2013-05-27 17:00:00,78.1,71.1,29.86,West,261,2.0,7.0,79,0.00,,,0.34,Wunderground v.1.15,2013-05-27 21:00:00,
2013-05-27 17:05:00,78.1,69.9,29.86,WNW,296,3.0,7.0,76,0.00,,,0.34,Wunderground v.1.15,2013-05-27 21:05:00,
2013-05-27 17:10:00,77.8,70.0,29.85,SSW,199,3.0,3.0,77,0.00,,,0.34,Wunderground v.1.15,2013-05-27 21:10:00,
2013-05-27 17:15:00,78.0,70.2,29.85,West,273,2.0,7.0,77,0.00,,,0.34,Wunderground v.1.15,2013-05-27 21:15:00,
2013-05-27 17:20:00,78.0,69.8,29.85,SW,236,2.0,2.0,76,0.00,,,0.34,Wunderground v.1.15,2013-05-27 21:20:00,
2013-05-27 17:25:00,77.8,70.0,29.85,WNW,299,2.0,7.0,77,0.00,,,0.34,Wunderground v.1.15,2013-05-27 21:25:00,
2013-05-27 17:30:00,78.0,70.2,29.84,SSW,199,2.0,7.0,77,0.00,,,0.34,Wunderground v.1.15,2013-05-27 21:30:00,
2013-05-27 17:40:00,77.7,69.5,29.83,WSW,253,1.0,1.0,76,0.00,,,0.34,Wunderground v.1.15,2013-05-27 21:40:00,
2013-05-27 17:45:00,77.6,69.8,29.83,SSW,194,0.0,3.0,77,0.00,,,0.34,Wunderground v.1.15,2013-05-27 21:45:00,
2013-05-27 17:50:00,77.1,68.9,29.84,NE,49,1.0,1.0,76,0.00,,,0.34,Wunderground v.1.15,2013-05-27 21:50:00,
2013-05-27 17:55:00,75.3,67.6,29.84,SW,219,2.0,3.0,77,0.00,,,0.35,Wunderground v.1.15,2013-05-27 21:55:00,
2013-05-27 18:05:00,72.2,68.8,29.84,SW,231,2.0,7.0,89,0.08,,,0.47,Wunderground v.1.15,2013-05-27 22:05:00,
2013-05-27 18:10:00,71.4,68.6,29.84,SW,226,0.0,7.0,91,0.07,,,0.48,Wunderground v.1.15,2013-05-27 22:10:00,
2013-05-27 18:15:00,70.8,68.4,29.84,SW,226,0.0,7.0,92,0.10,,,0.49,Wunderground v.1.15,2013-05-27 22:15:00,
2013-05-27 18:20:00,70.3,68.2,29.84,SW,226,0.0,7.0,93,0.08,,,0.50,Wunderground v.1.15,2013-05-27 22:20:00,
2013-05-27 18:25:00,70.0,68.2,29.84,SW,226,0.0,7.0,94,0.08,,,0.50,Wunderground v.1.15,2013-05-27 22:25:00,
2013-05-27 18:30:00,69.8,68.3,29.84,SW,226,0.0,7.0,95,0.06,,,0.50,Wunderground v.1.15,2013-05-27 22:30:00,
2013-05-27 18:35:00,69.6,68.4,29.85,SW,226,0.0,7.0,96,0.04,,,0.50,Wunderground v.1.15,2013-05-27 22:35:00,
2013-05-27 18:40:00,69.5,68.3,29.85,SW,226,0.0,7.0,96,0.00,,,0.50,Wunderground v.1.15,2013-05-27 22:40:00,
2013-05-27 18:45:00,69.3,68.1,29.85,SW,226,0.0,7.0,96,0.00,,,0.50,Wunderground v.1.15,2013-05-27 22:45:00,
2013-05-27 18:50:00,69.1,68.2,29.86,SW,221,1.0,1.0,97,0.00,,,0.50,Wunderground v.1.15,2013-05-27 22:50:00,
2013-05-27 18:55:00,68.8,67.6,29.85,SW,227,3.0,5.0,96,0.00,,,0.50,Wunderground v.1.15,2013-05-27 22:55:00,
2013-05-27 19:00:00,68.4,66.9,29.85,SSW,196,3.0,7.0,95,0.00,,,0.51,Wunderground v.1.15,2013-05-27 23:00:00,
2013-05-27 19:05:00,67.7,65.9,29.85,SSW,209,2.0,7.0,94,0.00,,,0.51,Wunderground v.1.15,2013-05-27 23:05:00,
2013-05-27 19:10:00,67.1,65.3,29.85,SW,220,2.0,7.0,94,0.00,,,0.51,Wunderground v.1.15,2013-05-27 23:10:00,
2013-05-27 19:20:00,66.2,64.7,29.85,SSW,198,1.0,7.0,95,0.00,,,0.51,Wunderground v.1.15,2013-05-27 23:20:00,
2013-05-27 19:30:00,65.8,64.6,29.85,South,190,1.0,1.0,96,0.16,,,0.54,Wunderground v.1.15,2013-05-27 23:30:00,
2013-05-27 19:35:00,65.6,64.4,29.85,South,190,0.0,7.0,96,0.19,,,0.55,Wunderground v.1.15,2013-05-27 23:35:00,
2013-05-27 19:40:00,65.5,64.6,29.85,South,190,0.0,7.0,97,0.11,,,0.56,Wunderground v.1.15,2013-05-27 23:40:00,
2013-05-27 19:45:00,65.5,64.6,29.85,South,190,0.0,7.0,97,0.13,,,0.57,Wunderground v.1.15,2013-05-27 23:45:00,
2013-05-27 19:50:00,65.4,64.5,29.85,South,190,0.0,7.0,97,0.08,,,0.57,Wunderground v.1.15,2013-05-27 23:50:00,
2013-05-27 19:55:00,65.3,64.4,29.86,South,190,0.0,7.0,97,0.05,,,0.58,Wunderground v.1.15,2013-05-27 23:55:00,
2013-05-27 20:00:00,65.3,64.7,29.86,South,190,0.0,7.0,98,0.05,,,0.58,Wunderground v.1.15,2013-05-28 00:00:00,
2013-05-27 20:05:00,65.3,64.7,29.87,South,190,0.0,7.0,98,0.05,,,0.58,Wunderground v.1.15,2013-05-28 00:05:00,
2013-05-27 20:10:00,65.2,64.6,29.87,South,190,0.0,7.0,98,0.05,,,0.59,Wunderground v.1.15,2013-05-28 00:10:00,
2013-05-27 20:15:00,65.3,64.7,29.86,South,190,0.0,7.0,98,0.05,,,0.59,Wunderground v.1.15,2013-05-28 00:15:00,
2013-05-27 20:20:00,65.2,64.6,29.85,South,190,0.0,7.0,98,0.04,,,0.59,Wunderground v.1.15,2013-05-28 00:20:00,
2013-05-27 20:25:00,65.1,64.5,29.85,South,190,0.0,7.0,98,0.00,,,0.59,Wunderground v.1.15,2013-05-28 00:25:00,
2013-05-27 20:35:00,65.1,64.5,29.84,South,190,0.0,7.0,98,0.00,,,0.59,Wunderground v.1.15,2013-05-28 00:35:00,
2013-05-27 20:40:00,65.1,64.5,29.84,South,190,0.0,7.0,98,0.00,,,0.59,Wunderground v.1.15,2013-05-28 00:40:00,
2013-05-27 20:45:00,65.0,64.4,29.83,South,190,0.0,7.0,98,0.00,,,0.59,Wunderground v.1.15,2013-05-28 00:45:00,
2013-05-27 20:50:00,65.0,64.4,29.82,South,190,0.0,7.0,98,0.00,,,0.59,Wunderground v.1.15,2013-05-28 00:50:00,
2013-05-27 20:55:00,64.9,64.3,29.82,South,190,0.0,7.0,98,0.00,,,0.59,Wunderground v.1.15,2013-05-28 00:55:00,
2013-05-27 21:00:00,64.7,64.1,29.81,South,190,0.0,7.0,98,0.00,,,0.59,Wunderground v.1.15,2013-05-28 01:00:00,
2013-05-27 21:05:00,64.7,64.1,29.81,South,190,0.0,7.0,98,0.00,,,0.59,Wunderground v.1.15,2013-05-28 01:05:00,
2013-05-27 21:10:00,64.6,64.0,29.81,South,190,0.0,7.0,98,0.00,,,0.59,Wunderground v.1.15,2013-05-28 01:10:00,
2013-05-27 21:15:00,64.5,63.9,29.81,NW,310,0.0,7.0,98,0.00,,,0.59,Wunderground v.1.15,2013-05-28 01:15:00,
2013-05-27 21:25:00,64.4,64.1,29.82,NW,323,2.0,7.0,99,0.00,,,0.59,Wunderground v.1.15,2013-05-28 01:25:00,
2013-05-27 21:30:00,64.2,63.6,29.82,NW,323,0.0,7.0,98,0.00,,,0.59,Wunderground v.1.15,2013-05-28 01:30:00,
2013-05-27 21:35:00,64.0,63.4,29.81,NW,323,0.0,7.0,98,0.00,,,0.59,Wunderground v.1.15,2013-05-28 01:35:00,
2013-05-27 21:40:00,64.0,63.4,29.81,NW,323,0.0,7.0,98,0.00,,,0.59,Wunderground v.1.15,2013-05-28 01:40:00,
2013-05-27 21:45:00,63.8,63.2,29.82,NW,323,0.0,7.0,98,0.00,,,0.59,Wunderground v.1.15,2013-05-28 01:45:00,
2013-05-27 21:50:00,63.7,63.1,29.83,NW,304,0.0,7.0,98,0.00,,,0.59,Wunderground v.1.15,2013-05-28 01:50:00,
2013-05-27 21:55:00,63.6,63.3,29.83,NW,304,0.0,7.0,99,0.00,,,0.59,Wunderground v.1.15,2013-05-28 01:55:00,
2013-05-27 22:00:00,63.6,63.3,29.83,NW,304,0.0,7.0,99,0.00,,,0.59,Wunderground v.1.15,2013-05-28 02:00:00,
2013-05-27 22:05:00,63.5,63.2,29.83,NW,304,0.0,7.0,99,0.00,,,0.59,Wunderground v.1.15,2013-05-28 02:05:00,
2013-05-27 22:10:00,63.3,62.7,29.84,NW,304,0.0,7.0,98,0.00,,,0.59,Wunderground v.1.15,2013-05-28 02:10:00,
2013-05-27 22:15:00,63.2,62.6,29.84,NW,304,0.0,7.0,98,0.00,,,0.59,Wunderground v.1.15,2013-05-28 02:15:00,
2013-05-27 22:20:00,63.1,62.8,29.84,NW,304,0.0,7.0,99,0.00,,,0.59,Wunderground v.1.15,2013-05-28 02:20:00,
2013-05-27 22:25:00,63.0,62.7,29.85,NW,304,0.0,7.0,99,0.00,,,0.59,Wunderground v.1.15,2013-05-28 02:25:00,
2013-05-27 22:30:00,62.9,62.6,29.85,NW,304,0.0,7.0,99,0.00,,,0.59,Wunderground v.1.15,2013-05-28 02:30:00,
2013-05-27 22:35:00,62.7,62.4,29.86,NW,304,0.0,7.0,99,0.00,,,0.59,Wunderground v.1.15,2013-05-28 02:35:00,
2013-05-27 22:40:00,62.7,62.4,29.86,NW,304,0.0,7.0,99,0.00,,,0.59,Wunderground v.1.15,2013-05-28 02:40:00,
2013-05-27 22:45:00,62.7,62.4,29.86,NW,304,0.0,7.0,99,0.00,,,0.59,Wunderground v.1.15,2013-05-28 02:45:00,
2013-05-27 22:50:00,62.7,62.4,29.86,NW,304,0.0,7.0,99,0.00,,,0.59,Wunderground v.1.15,2013-05-28 02:50:00,
2013-05-27 22:55:00,62.8,62.5,29.87,North,355,0.0,7.0,99,0.00,,,0.59,Wunderground v.1.15,2013-05-28 02:55:00,
2013-05-27 23:00:00,63.1,62.8,29.87,North,355,0.0,7.0,99,0.00,,,0.59,Wunderground v.1.15,2013-05-28 03:00:00,
2013-05-27 23:10:00,63.3,63.0,29.88,North,355,0.0,7.0,99,0.00,,,0.59,Wunderground v.1.15,2013-05-28 03:10:00,
2013-05-27 23:20:00,63.1,62.8,29.87,North,355,0.0,7.0,99,0.00,,,0.59,Wunderground v.1.15,2013-05-28 03:20:00,
2013-05-27 23:30:00,62.8,62.5,29.88,North,355,0.0,0.0,99,0.00,,,0.59,Wunderground v.1.15,2013-05-28 03:30:00,
2013-05-27 23:35:00,62.8,62.5,29.88,North,355,0.0,0.0,99,0.00,,,0.59,Wunderground v.1.15,2013-05-28 03:35:00,
2013-05-27 23:40:00,62.9,62.6,29.88,North,355,0.0,0.0,99,0.00,,,0.59,Wunderground v.1.15,2013-05-28 03:40:00,
2013-05-27 23:45:00,62.8,62.5,29.88,North,355,0.0,0.0,99,0.00,,,0.59,Wunderground v.1.15,2013-05-28 03:45:00,
2013-05-27 23:50:00,62.8,62.5,29.88,North,355,0.0,0.0,99,0.00,,,0.59,Wunderground v.1.15,2013-05-28 03:50:00,
2013-05-27 23:55:00,62.8,62.5,29.88,North,355,0.0,0.0,99,0.00,,,0.59,Wunderground v.1.15,2013-05-28 03:55:00,